Wetbulb
58.02 58.11 58.01 58.17 58.43 58.45 58.23 58.40 58.21 58.32 58.43 58.84 59.37 59.40 59.38 59.37 59.02 62.65 59.72 57.80 62.29 65.63 62.49 58.79 57.98 57.64 57.58 56.27 56.44 56.94 51.89 51.31 53.85 55.31 56.28 59.74 56.94 59.18 59.48 58.82 60.61 62.16 64.59 69.18 73.43
57.69 57.75 57.82 57.77 58.16 58.15 58.15 58.11 58.14 58.28 58.51 58.84 59.14 59.05 59.07 59.06 62.37 60.04 61.60 64.12 67.36 67.85 56.81 55.86 55.70 55.95 55.12 55.17 55.61 53.04 51.27 52.17 56.53 57.41 57.01 58.31 57.24 57.45 57.08 57.81 58.55 60.63 67.90 71.20 72.74
57.16 57.27 57.45 57.39 57.37 57.85 57.62 57.75 57.98 58.15 58.39 58.71 58.59 58.39 58.80 59.80 61.02 57.75 66.96 66.93 65.30 64.69 60.72 58.43 57.33 55.89 54.42 55.21 54.44 53.81 50.77 54.23 54.80 55.82 57.26 56.52 56.61 58.45 56.36 56.19 58.74 57.63 62.42 69.88 70.96
56.74 57.03 56.99 56.99 56.99 57.54 57.40 57.44 57.55 57.74 57.84 58.19 57.89 58.01 58.86 62.04 53.06 59.62 67.79 66.45 66.07 62.49 58.92 56.93 55.74 54.52 53.86 52.53 54.53 51.34 53.40 53.80 54.46 55.57 55.24 55.18 57.54 55.99 57.27 58.09 60.35 60.30 61.01 66.14 68.75
56.52 56.58 56.52 56.58 57.08 57.13 56.95 57.13 57.30 57.21 57.25 57.19 57.73 58.23 61.32 58.57 55.44 62.16 67.67 65.85 61.56 59.11 56.57 55.20 54.49 55.12 52.93 53.03 53.36 52.37 53.32 53.94 54.92 55.09 55.58 56.31 55.12 56.34 57.53 60.29 61.12 61.40 61.25 61.12 66.52
56.21 56.22 56.10 56.30 56.52 56.66 56.54 56.46 56.39 56.47 56.82 57.76 58.69 57.78 62.03 54.39 61.20 62.64 61.57 60.96 60.53 58.89 55.80 56.86 56.19 56.56 54.65 53.51 52.78 54.43 53.85 53.99 54.85 54.85 55.48 54.67 55.99 56.54 57.90 59.67 59.32 59.68 59.98 60.55 63.43
56.42 56.14 56.04 55.98 56.23 56.44 56.30 56.07 55.72 56.39 57.52 59.64 58.64 62.03 58.53 54.91 60.78 62.45 61.10 60.44 60.63 59.58 57.53 57.90 58.17 55.48 55.99 53.96 55.59 54.21 51.97 54.14 53.83 54.98 55.00 55.91 53.33 54.45 57.90 59.14 58.35 59.01 59.45 59.90 61.96
55.92 55.69 55.56 55.76 55.98 56.28 56.20 56.07 55.82 57.08 59.50 58.41 58.65 62.79 55.31 59.35 62.12 60.72 61.86 60.34 60.51 60.61 59.40 59.48 58.99 57.08 55.09 56.38 53.71 51.85 52.88 50.61 54.36 54.74 55.19 55.02 51.85 56.35 58.63 58.08 57.63 58.46 59.38 59.38 62.91
55.68 55.14 55.00 55.50 55.66 55.89 55.36 55.33 56.57 59.48 59.66 59.45 63.50 62.82 55.18 61.34 60.04 60.34 61.38 58.74 58.27 58.64 59.58 58.27 57.91 56.03 55.02 51.90 51.03 52.05 49.38 50.45 51.63 54.90 54.27 54.07 52.18 56.66 59.57 58.27 57.70 58.55 59.20 59.66 60.71
55.21 54.61 54.43 54.80 55.31 54.91 54.47 54.68 57.79 58.38 60.94 63.21 62.69 58.81 58.28 57.63 59.42 59.46 60.20 59.39 56.54 56.34 56.20 55.88 55.51 53.40 53.45 52.01 48.08 49.40 49.66 50.80 50.40 53.71 54.00 53.07 52.94 56.27 59.74 59.33 58.84 59.23 60.03 60.41 60.98
54.83 54.59 54.37 54.39 54.63 54.04 56.80 59.57 57.80 58.04 58.84 54.53 54.68 55.64 57.45 58.55 59.85 58.16 59.01 57.18 56.80 55.78 53.13 54.51 51.71 51.61 52.17 52.57 51.97 51.00 50.11 49.31 51.61 53.63 52.64 52.46 52.83 57.01 59.26 60.00 60.18 61.01 62.69 64.47 65.39
54.35 54.63 54.49 54.33 54.13 53.88 57.90 56.58 54.73 55.88 53.98 55.86 54.83 55.83 57.57 58.23 54.85 55.90 58.07 54.72 54.02 52.25 52.40 53.37 51.53 52.50 52.48 52.35 51.63 51.48 50.69 51.20 52.74 53.47 53.37 52.31 53.71 57.50 59.03 60.64 61.58 62.75 64.42 66.93 68.30
54.00 54.10 54.35 53.90 53.32 58.38 58.02 55.57 58.81 57.91 54.82 53.50 54.57 55.32 56.64 57.71 54.98 54.85 56.80 55.08 53.02 50.88 51.97 52.62 52.71 52.92 52.37 52.59 51.87 52.01 50.53 50.15 49.99 52.28 54.16 53.33 53.69 56.39 58.43 61.11 62.80 64.60 65.74 67.55 68.08
53.87 53.77 53.88 52.73 55.17 58.31 57.51 58.40 59.76 59.28 53.20 51.76 53.31 53.86 55.47 56.45 53.68 57.49 57.80 56.09 52.96 51.09 51.85 52.91 53.63 52.04 52.37 51.12 52.22 50.88 52.21 51.46 50.79 50.75 49.34 54.29 43.29 54.79 57.20 58.25 61.31 63.23 64.24 65.44 67.62
53.71 53.92 53.53 52.07 57.15 56.90 57.12 58.98 59.56 59.11 45.95 52.72 52.96 58.18 56.42 54.76 55.30 54.59 58.17 55.99 52.07 51.38 53.17 51.96 51.61 51.47 52.58 52.22 53.22 51.53 52.84 52.14 51.45 51.17 51.06 49.89 48.89 53.42 56.38 55.52 59.32 61.97 63.46 64.65 66.50
53.63 53.69 53.06 57.33 58.83 59.11 58.59 58.79 59.22 50.95 44.63 50.19 52.62 52.40 52.98 53.95 53.61 54.99 55.36 57.19 55.78 52.83 53.22 52.98 54.94 53.69 53.74 54.05 53.88 54.62 53.04 53.98 52.72 51.87 47.75 48.81 49.67 51.64 53.56 55.46 59.11 61.55 63.10 64.28 65.53
53.44 53.44 52.58 56.60 57.44 58.85 58.75 57.39 50.95 47.70 53.57 49.35 50.49 52.57 52.95 51.70 51.98 53.46 52.84 52.99 52.79 50.06 50.36 51.35 52.11 54.46 55.31 52.77 54.81 53.64 52.73 47.84 46.45 46.28 46.28 50.49 47.71 52.75 56.02 58.28 59.79 60.71 62.15 63.61 65.39
52.20 51.21 55.06 57.27 58.25 58.87 58.28 53.84 47.05 50.07 50.49 53.27 51.88 52.46 50.84 52.61 52.00 52.08 52.76 52.20 53.97 54.04 51.40 49.83 47.91 52.87 55.13 52.84 52.06 52.13 51.97 48.16 42.30 44.37 46.25 50.74 47.95 51.67 57.89 59.91 60.72 61.85 62.90 63.77 64.45
50.13 59.22 57.98 60.75 60.01 59.39 55.49 48.88 50.76 51.06 52.25 51.54 51.88 50.30 50.05 51.67 52.54 52.98 53.49 52.95 53.94 55.38 52.13 50.10 49.11 54.02 54.36 55.23 54.62 52.84 52.31 53.33 49.05 50.48 47.41 49.24 52.29 55.47 57.95 58.45 59.44 60.11 61.46 62.44 63.49
54.15 56.84 57.89 60.72 61.62 58.16 53.44 48.83 51.81 53.47 52.95 53.39 49.80 51.76 49.74 50.74 51.16 52.35 51.91 54.62 53.76 55.55 56.57 54.31 49.16 53.20 54.02 55.31 55.83 54.14 54.66 49.46 51.48 44.36 42.83 47.11 48.49 50.66 55.55 56.03 57.96 58.62 60.29 61.71 62.19
54.70 54.02 59.21 60.78 59.67 54.84 49.60 50.79 51.75 53.49 54.33 52.62 51.23 50.44 51.38 50.50 51.70 51.54 52.10 54.05 54.80 54.77 56.53 55.68 53.36 52.34 54.42 52.78 52.07 52.22 51.65 53.11 52.22 50.15 45.01 43.56 48.31 57.14 55.79 56.73 56.79 58.25 59.78 60.16 60.27
55.72 51.16 59.49 60.17 51.81 53.62 50.63 52.00 46.47 52.95 54.98 53.42 54.44 52.83 51.70 51.38 50.62 51.12 51.64 54.09 55.45 55.81 52.98 55.95 53.61 49.67 51.07 54.54 54.39 53.18 52.07 52.71 47.82 46.53 48.74 47.08 46.16 57.84 56.58 57.07 57.49 57.64 58.76 59.28 60.52
53.13 56.15 59.84 58.80 49.66 49.96 52.12 51.31 53.08 52.69 53.32 52.93 52.07 53.55 54.11 52.42 50.17 51.94 53.32 54.26 54.93 55.27 53.91 55.56 53.78 48.04 48.62 53.06 54.81 52.48 53.12 51.99 52.34 52.08 47.85 45.25 47.59 56.87 57.17 56.97 57.94 57.77 58.64 59.36 60.12
54.20 50.28 54.94 54.87 55.76 53.13 50.75 51.26 51.03 54.40 52.79 54.03 53.33 54.22 53.16 51.80 53.78 51.51 52.08 53.16 54.37 54.99 54.61 56.35 53.39 50.26 46.02 48.74 51.11 49.28 50.00 51.40 51.31 47.62 48.26 48.51 49.82 53.47 54.47 55.58 57.21 57.67 58.64 58.97 59.66
54.12 53.82 56.05 49.86 51.43 52.27 52.57 52.47 51.01 50.27 53.60 54.82 52.88 52.93 52.38 50.68 50.81 50.68 51.85 52.65 53.50 54.13 55.13 55.75 50.21 51.74 51.55 51.41 50.95 50.18 49.70 50.19 49.25 50.19 47.23 49.05 49.18 52.60 55.79 55.95 56.72 57.80 57.88 58.20 58.21
53.19 53.96 55.72 56.70 53.77 52.19 48.84 51.67 51.35 51.70 52.58 52.05 52.22 52.03 52.86 51.90 52.47 50.81 52.55 53.28 52.89 55.02 54.32 55.26 50.46 51.69 49.71 51.16 50.41 48.97 50.05 50.48 49.71 49.80 50.20 50.76 50.85 56.38 57.09 57.35 56.80 57.66 57.38 57.25 57.45
56.83 57.23 55.59 50.13 53.27 51.65 51.43 51.81 52.19 53.97 53.84 54.66 53.75 52.57 52.49 54.14 56.36 57.12 57.07 55.99 55.81 53.55 53.07 52.41 52.12 49.97 46.60 50.18 49.94 47.05 49.81 49.75 49.78 51.47 51.17 48.45 52.11 55.85 55.26 54.53 55.61 56.15 57.10 56.34 56.76
MSLP
1021.09 1020.83 1020.52 1020.09 1019.30 1019.07 1018.66 1018.33 1017.81 1017.31 1017.05 1016.58 1016.23 1015.84 1015.37 1014.90 1013.69 1013.04 1010.56 1010.67 1010.20 1010.30 1010.15 1008.39 1007.75 1007.00 1006.64 1005.67 1005.54 1005.03 1003.92 1001.94 1001.01 1000.47 1000.58 1000.63 1000.75 1000.59 1000.85 1000.26 1000.00 1000.04 1000.47 1001.84 1002.89
1021.16 1020.93 1020.42 1019.78 1019.30 1019.08 1018.63 1018.21 1017.63 1017.15 1016.77 1016.38 1016.02 1015.60 1015.22 1014.82 1012.88 1009.83 1010.54 1010.44 1010.45 1010.34 1009.48 1007.87 1006.66 1006.42 1005.60 1005.04 1004.83 1004.49 1002.97 1001.64 1000.86 1000.86 1000.98 1001.07 1001.34 1000.99 1000.78 1000.26 999.77 999.69 1000.85 1002.03 1002.83
1021.11 1020.95 1020.35 1019.63 1019.29 1019.04 1018.49 1017.96 1017.42 1016.94 1016.41 1016.10 1015.75 1015.34 1015.01 1014.50 1011.75 1009.21 1010.32 1010.36 1010.39 1010.30 1008.73 1007.62 1006.79 1006.07 1004.76 1004.49 1004.15 1003.63 1002.93 1001.87 1001.84 1002.41 1002.32 1001.89 1001.58 1001.02 1000.79 1000.16 999.59 1000.06 1000.35 1001.62 1002.33
1021.28 1020.77 1020.18 1019.58 1019.33 1018.97 1018.34 1017.65 1017.17 1016.65 1016.15 1015.85 1015.43 1015.02 1014.75 1013.39 1009.65 1009.66 1010.37 1010.47 1010.43 1009.93 1008.43 1007.24 1006.56 1005.42 1004.33 1003.96 1004.05 1003.75 1003.16 1003.02 1002.74 1002.39 1002.48 1001.93 1001.46 1001.37 1000.93 1000.41 1000.14 1000.30 1000.22 1000.50 1001.71
1021.23 1020.73 1020.24 1019.76 1019.27 1018.85 1018.07 1017.33 1016.80 1016.28 1015.87 1015.54 1015.08 1014.80 1014.07 1011.06 1008.71 1009.66 1010.17 1010.25 1009.72 1008.88 1007.65 1006.78 1005.94 1004.99 1004.15 1003.98 1004.07 1003.57 1002.91 1002.97 1002.72 1002.60 1002.19 1001.93 1001.62 1001.11 1000.61 1000.16 1000.02 1000.01 1000.02 1000.25 1000.74
1021.26 1020.72 1020.34 1019.59 1019.17 1018.60 1017.71 1016.96 1016.42 1015.94 1015.52 1015.13 1014.72 1014.82 1012.93 1009.37 1008.42 1008.79 1008.89 1008.99 1008.21 1007.56 1007.23 1006.51 1005.68 1005.43 1004.67 1004.34 1003.95 1003.27 1003.21 1002.80 1002.37 1002.02 1001.75 1001.62 1001.04 1000.72 1000.16 999.94 999.93 999.69 999.69 999.67 1000.05
1021.25 1020.82 1020.33 1019.55 1018.97 1018.20 1017.20 1016.56 1016.04 1015.59 1015.19 1014.72 1014.39 1013.71 1010.92 1008.66 1008.28 1008.48 1008.61 1008.00 1008.01 1007.59 1006.79 1006.78 1006.45 1005.94 1004.92 1004.02 1003.86 1003.64 1002.98 1001.75 1001.85 1001.60 1001.32 1001.67 1000.70 1000.13 1000.16 1000.04 999.69 999.68 999.54 999.77 1000.01
1021.26 1020.88 1020.14 1019.45 1018.81 1017.65 1016.80 1016.21 1015.71 1015.22 1014.89 1014.52 1014.21 1012.89 1009.15 1008.53 1008.34 1008.31 1007.96 1007.83 1007.90 1007.72 1007.50 1007.16 1006.77 1006.04 1005.22 1004.38 1003.98 1003.17 1001.97 1000.64 1001.31 1001.58 1001.46 1001.34 999.42 999.74 1000.31 999.99 999.75 999.69 999.57 999.75 1000.00
1021.20 1020.70 1020.00 1019.44 1018.14 1017.27 1016.47 1015.99 1015.23 1014.91 1014.69 1014.27 1013.48 1011.49 1008.42 1009.25 1008.33 1007.88 1007.73 1007.10 1007.44 1007.51 1007.39 1007.48 1006.77 1005.49 1004.72 1003.96 1002.31 1001.89 1000.60 1000.65 1000.89 1001.63 1001.57 1000.98 999.88 1000.01 1000.40 1000.13 999.98 999.78 999.61 999.50 999.68
1021.46 1020.59 1020.08 1019.16 1017.97 1016.88 1016.11 1015.58 1014.97 1014.90 1014.21 1012.84 1011.79 1010.66 1008.48 1007.73 1007.96 1007.97 1007.62 1007.42 1007.05 1007.01 1006.86 1006.74 1005.63 1004.56 1003.23 1002.44 1001.57 1001.20 1001.09 1001.16 1001.24 1001.25 1001.70 1000.55 1000.19 1000.03 1000.48 1000.14 999.84 1000.04 1000.08 1000.11 1000.07
1021.25 1020.61 1020.06 1018.93 1017.95 1016.64 1015.35 1014.37 1014.39 1013.44 1011.32 1010.36 1009.61 1008.98 1008.16 1008.30 1008.27 1007.46 1007.50 1007.31 1006.94 1006.53 1005.52 1005.34 1004.39 1003.16 1003.65 1003.90 1003.45 1002.96 1002.48 1001.87 1001.63 1001.87 1002.11 1000.79 1000.81 1000.50 1000.83 1000.51 1000.65 1000.82 1001.14 1001.16 1000.99
1021.33 1020.93 1019.78 1018.84 1017.95 1016.22 1015.17 1013.41 1014.24 1013.87 1011.10 1009.70 1009.39 1008.97 1008.78 1008.58 1007.66 1007.34 1007.39 1006.79 1006.39 1005.26 1005.54 1004.80 1003.84 1004.51 1004.62 1004.38 1003.89 1003.28 1002.45 1001.76 1001.80 1002.15 1002.07 1001.12 1000.56 1001.14 1001.07 1001.39 1001.98 1002.16 1002.11 1001.81 1001.53
1021.30 1020.72 1019.89 1018.62 1017.46 1016.08 1014.41 1014.58 1013.99 1013.68 1011.43 1009.18 1008.61 1007.87 1007.94 1008.07 1007.12 1006.99 1006.92 1006.38 1005.84 1005.36 1004.76 1003.86 1004.22 1005.06 1004.66 1003.74 1003.42 1002.85 1002.89 1002.89 1002.51 1002.08 1001.68 1001.32 1000.84 1000.86 1002.54 1002.04 1002.52 1002.71 1002.67 1002.63 1002.65
1021.55 1020.93 1019.89 1018.62 1017.60 1015.24 1014.07 1014.25 1013.62 1013.68 1010.44 1008.66 1007.83 1007.60 1007.76 1007.42 1007.03 1007.24 1006.97 1006.53 1005.76 1004.96 1005.01 1004.06 1004.90 1004.89 1004.21 1003.76 1003.60 1002.52 1003.42 1003.17 1002.62 1001.74 1000.59 1001.53 1004.21 1001.27 1001.85 1002.49 1003.12 1003.31 1003.37 1003.17 1003.33
1021.34 1020.70 1020.21 1019.90 1017.77 1014.60 1014.71 1014.24 1013.88 1013.46 1008.93 1007.85 1007.28 1007.31 1006.99 1006.72 1006.58 1007.00 1007.10 1006.58 1005.51 1005.25 1005.32 1004.43 1004.49 1004.54 1003.84 1003.98 1004.06 1003.32 1003.82 1003.29 1002.85 1001.78 1001.41 1001.22 1002.64 1002.22 1002.61 1003.28 1003.72 1003.90 1004.18 1004.01 1003.88
1021.16 1020.92 1020.46 1017.63 1016.70 1015.09 1014.72 1014.34 1013.74 1011.53 1007.78 1007.43 1006.98 1006.72 1006.47 1006.44 1006.45 1006.71 1006.75 1006.71 1006.16 1005.45 1005.21 1004.63 1005.03 1004.91 1004.44 1004.35 1004.08 1003.85 1003.61 1002.79 1002.68 1001.69 1001.18 1001.85 1001.80 1002.25 1003.33 1004.27 1004.40 1004.71 1004.98 1005.02 1004.71
1021.02 1020.67 1020.45 1018.73 1015.35 1015.20 1014.83 1013.28 1011.24 1008.54 1007.30 1007.25 1006.42 1006.04 1005.58 1006.03 1006.27 1006.14 1006.15 1005.81 1005.06 1004.74 1004.37 1004.60 1004.47 1004.64 1004.84 1003.73 1003.48 1003.60 1002.82 1001.32 1001.41 1000.67 1000.59 1002.36 1002.52 1003.45 1004.64 1005.01 1005.26 1005.61 1005.88 1005.89 1005.70
1020.74 1020.21 1018.25 1017.25 1016.23 1015.60 1014.42 1012.06 1009.33 1007.49 1006.78 1006.93 1006.22 1005.77 1005.68 1005.92 1006.06 1006.10 1005.82 1005.52 1005.92 1005.52 1004.19 1003.71 1004.03 1004.31 1004.80 1004.36 1003.81 1003.55 1003.71 1003.06 1002.60 1001.82 1001.46 1002.29 1002.40 1004.30 1005.14 1005.70 1006.06 1006.46 1006.73 1006.77 1006.66
1020.13 1017.27 1016.38 1015.50 1015.84 1015.60 1013.49 1010.34 1007.72 1007.33 1007.55 1007.06 1006.46 1005.83 1006.00 1006.22 1005.93 1006.02 1006.09 1006.29 1006.96 1006.86 1006.11 1004.73 1004.42 1005.13 1005.30 1004.92 1004.68 1004.02 1003.76 1004.87 1004.76 1003.57 1003.00 1001.75 1003.31 1004.45 1005.53 1006.51 1006.70 1006.97 1007.29 1007.55 1007.48
1019.85 1017.06 1014.83 1015.47 1015.69 1014.82 1012.42 1009.60 1008.64 1008.70 1008.39 1007.49 1006.11 1005.92 1005.46 1005.99 1005.97 1005.89 1006.51 1008.05 1007.98 1007.79 1007.32 1006.62 1005.82 1005.30 1005.23 1005.31 1004.94 1005.05 1005.33 1004.96 1004.67 1004.21 1003.71 1002.89 1003.67 1005.14 1006.58 1007.50 1007.62 1007.58 1007.89 1008.25 1008.18
1019.66 1016.06 1015.13 1015.23 1015.07 1013.64 1010.85 1009.09 1009.24 1009.23 1008.74 1007.82 1006.76 1006.46 1005.94 1006.37 1006.14 1006.25 1007.30 1009.09 1009.07 1008.47 1008.19 1007.91 1007.20 1005.74 1005.49 1005.23 1005.24 1005.25 1004.91 1005.81 1006.43 1006.29 1005.59 1005.26 1005.02 1006.90 1007.84 1008.39 1008.57 1008.56 1008.89 1009.09 1009.07
1018.32 1015.21 1014.93 1014.99 1013.75 1011.69 1010.19 1009.95 1010.63 1009.22 1009.13 1008.51 1007.64 1006.79 1006.86 1007.11 1007.01 1007.27 1008.02 1009.46 1010.01 1009.64 1008.91 1009.47 1008.81 1007.25 1005.90 1006.30 1006.63 1006.50 1006.71 1007.23 1007.51 1007.14 1006.99 1007.16 1006.79 1007.96 1008.53 1009.04 1009.77 1009.83 1009.86 1009.97 1010.11
1016.94 1014.33 1014.94 1014.78 1012.16 1010.95 1010.71 1010.35 1009.82 1009.33 1008.88 1008.68 1008.40 1008.05 1008.04 1007.96 1008.27 1008.56 1009.36 1010.72 1010.63 1010.76 1011.15 1010.92 1009.13 1008.28 1006.39 1006.68 1007.32 1007.00 1007.35 1007.94 1008.26 1008.87 1008.24 1007.67 1007.17 1008.37 1009.02 1009.39 1010.14 1010.67 1010.83 1010.73 1011.01
1016.98 1014.36 1014.17 1014.00 1012.38 1011.48 1010.36 1010.08 1009.91 1009.93 1009.61 1009.21 1008.88 1008.67 1008.59 1008.60 1008.96 1009.22 1009.72 1011.00 1011.30 1011.82 1012.69 1012.29 1010.91 1010.03 1008.89 1007.95 1007.99 1008.01 1008.09 1008.29 1008.58 1008.67 1008.18 1007.99 1007.82 1007.79 1008.50 1009.62 1010.34 1011.19 1011.58 1011.48 1011.42
1016.90 1013.80 1013.29 1012.39 1011.80 1011.27 1010.52 1009.93 1009.57 1009.79 1009.63 1009.56 1009.37 1008.99 1008.91 1009.02 1009.08 1009.32 1010.25 1010.75 1011.65 1012.64 1012.47 1012.42 1011.45 1010.42 1009.72 1009.23 1008.87 1008.62 1008.58 1008.59 1008.72 1008.92 1008.96 1008.85 1009.11 1009.20 1009.84 1010.59 1011.28 1011.47 1011.65 1011.76 1011.75
1015.74 1014.51 1013.66 1012.21 1011.37 1011.35 1011.39 1010.41 1009.48 1009.43 1009.69 1009.59 1009.43 1009.55 1009.70 1009.71 1009.82 1009.97 1010.53 1010.92 1011.21 1012.03 1012.33 1012.60 1012.00 1011.26 1010.41 1009.31 1008.98 1009.02 1008.83 1008.83 1009.36 1009.70 1009.75 1009.61 1010.09 1010.96 1011.30 1011.36 1011.26 1011.28 1011.63 1011.95 1012.22
1016.34 1015.82 1014.73 1012.54 1012.05 1011.17 1010.45 1010.21 1009.83 1009.92 1010.48 1009.57 1009.79 1010.16 1010.29 1011.02 1011.12 1011.48 1011.91 1012.19 1012.44 1012.81 1012.76 1012.91 1012.38 1011.75 1010.35 1009.66 1009.69 1009.08 1009.58 1010.19 1010.43 1010.30 1010.54 1010.68 1011.03 1011.16 1011.55 1012.21 1012.29 1011.84 1012.05 1012.12 1012.78
Wind_Speed
12 13 13 13 15 15 16 17 17 17 18 18 17 16 16 16 20 8 3 6 3 2 5 9 8 9 9 13 6 8 12 12 15 11 8 7 7 6 5 9 6 5 9 9 12
12 13 14 15 16 16 16 17 18 18 18 17 17 16 15 14 14 10 3 1 2 2 12 11 9 6 12 9 5 9 11 14 8 10 7 10 8 8 7 10 9 7 14 10 11
13 15 16 17 18 18 17 18 18 18 18 18 17 16 14 15 12 8 5 7 7 8 14 9 8 10 12 6 7 10 13 10 9 6 11 12 11 9 10 13 8 9 4 11 9
14 16 17 18 20 19 18 19 19 20 19 18 17 15 13 10 2 9 5 4 6 11 11 9 10 12 9 6 1 10 5 8 10 6 9 12 10 10 14 14 14 11 10 9 10
15 16 18 19 20 20 19 19 20 20 19 18 14 13 11 12 9 10 7 7 10 11 10 8 10 8 10 2 4 9 4 5 8 11 12 9 11 14 13 16 11 14 13 9 10
15 17 18 19 21 20 19 19 19 18 18 15 10 8 9 12 6 8 7 8 8 11 2 7 4 8 9 8 8 6 9 11 9 9 7 10 11 6 16 13 14 12 11 11 11
15 17 19 20 22 21 20 20 19 17 15 11 4 7 9 5 2 6 6 5 0 4 6 2 7 10 6 11 5 10 14 14 6 4 3 7 15 15 7 12 8 6 5 6 7
16 17 20 21 23 22 22 20 18 13 10 6 3 10 3 4 2 7 7 7 5 4 6 4 7 12 8 8 11 13 16 13 11 6 7 13 4 11 10 9 8 6 6 3 6
17 19 21 23 24 24 22 20 12 9 8 6 7 8 7 5 9 2 7 7 5 5 4 5 11 12 7 14 14 11 10 6 7 3 7 8 12 8 6 8 8 8 8 2 5
17 19 21 23 25 26 23 11 4 8 9 9 7 9 6 4 2 3 3 5 6 4 9 11 10 13 14 10 10 9 5 6 7 6 10 16 7 4 9 10 6 5 8 8 10
18 20 22 24 25 27 16 5 7 9 13 7 4 5 5 1 4 6 7 8 6 7 12 6 12 3 13 7 8 6 6 6 2 4 9 13 9 13 6 13 15 15 15 13 10
18 20 22 24 25 26 11 6 7 7 5 3 3 5 2 2 4 4 7 8 6 8 4 10 3 6 3 2 5 5 9 8 9 1 10 3 5 8 7 18 15 16 14 15 12
17 20 22 25 27 12 6 7 8 3 9 6 2 4 7 10 1 5 8 2 7 6 6 10 13 2 5 6 8 5 10 8 10 9 8 10 7 13 15 16 15 17 17 16 17
17 18 21 29 8 8 2 7 8 2 8 10 9 6 8 6 6 2 3 8 7 4 3 4 8 3 6 2 10 7 6 7 9 12 7 6 5 13 14 15 15 17 17 18 18
16 18 20 13 12 6 8 9 8 5 7 7 6 5 5 8 6 6 3 6 5 3 9 11 3 3 10 10 8 7 7 8 8 9 7 7 9 12 11 12 14 16 18 18 19
17 16 18 2 8 8 9 10 6 8 3 6 8 10 13 7 3 7 6 7 2 6 7 6 2 4 8 8 6 10 13 13 6 10 10 2 10 12 13 11 13 15 17 17 18
17 18 12 9 6 10 9 7 8 8 8 9 11 13 10 8 6 9 9 6 5 8 10 6 10 4 6 14 7 10 13 11 8 8 5 6 8 11 10 11 14 14 16 17 17
19 19 6 9 10 9 8 7 7 6 4 4 5 9 9 9 6 5 8 10 4 11 7 6 11 4 6 7 12 7 9 9 7 11 9 9 4 10 11 11 11 14 14 15 16
23 8 6 3 5 6 8 10 4 6 3 9 10 11 7 6 3 4 6 10 8 9 10 6 4 4 1 7 10 7 3 9 8 17 10 3 14 13 9 10 10 13 14 15 15
8 8 6 2 2 6 8 5 2 4 3 8 11 8 10 8 10 7 3 8 5 7 5 7 9 5 4 8 6 6 6 8 5 7 10 12 11 10 9 8 11 12 14 15 15
6 6 6 3 4 7 9 2 3 4 4 5 1 5 4 6 5 2 8 8 6 7 7 9 5 1 9 1 11 10 9 6 6 10 9 11 5 9 8 9 12 13 14 14 15
5 6 4 4 6 5 8 3 4 7 4 1 5 3 4 2 4 2 6 9 7 6 7 7 7 10 16 6 6 8 7 7 8 12 13 12 13 9 7 10 11 12 12 12 12
5 1 4 4 6 7 3 6 4 6 5 5 3 1 3 2 2 1 7 3 6 8 8 9 1 9 11 12 5 4 6 7 7 8 14 12 7 6 4 6 8 9 10 10 11
5 5 5 6 7 9 8 10 9 2 3 1 4 4 5 4 0 4 8 3 5 8 1 2 7 9 11 18 15 11 13 11 10 9 13 13 17 10 7 9 9 8 8 9 9
5 4 4 7 10 9 5 9 12 9 4 6 3 5 3 4 3 3 1 7 4 6 3 5 7 9 9 13 13 14 14 14 14 14 15 16 17 14 15 11 6 3 3 8 9
4 4 4 2 5 11 7 7 13 8 8 7 6 4 3 2 4 4 1 2 4 3 3 3 6 8 13 17 7 14 16 13 8 9 11 9 8 10 6 8 8 9 7 9 10
2 3 6 7 7 10 11 10 12 9 3 2 6 5 6 8 8 9 5 4 4 4 5 4 7 8 12 9 11 16 12 8 9 11 7 11 15 12 12 11 15 14 11 6 12
Wind_Direction
357 350 339 336 344 333 330 324 323 322 315 315 312 310 310 312 299 220 201 21 355 270 289 253 233 228 232 248 244 247 268 249 245 216 264 161 326 360 329 283 319 347 45 53 119
353 341 336 343 338 324 323 319 317 317 313 311 309 309 310 318 280 243 56 144 177 26 226 229 222 212 230 245 218 242 231 250 286 359 317 334 304 317 308 298 283 198 123 129 150
351 337 336 340 332 320 319 316 314 315 313 309 307 307 307 304 264 72 44 182 227 266 269 285 285 252 252 260 194 218 265 346 340 301 273 288 282 300 298 283 348 349 2 152 173
344 339 337 336 324 316 316 316 314 315 312 306 303 303 304 258 329 78 96 157 232 270 266 247 245 236 262 232 180 265 215 293 276 261 240 262 304 292 283 295 315 294 283 167 193
342 338 333 327 320 312 315 316 314 312 307 302 298 302 280 224 77 127 152 179 214 231 248 229 243 262 258 292 247 243 277 282 256 247 251 287 273 266 284 270 307 293 289 246 191
338 334 327 327 317 312 316 318 313 310 304 294 289 293 247 246 106 134 201 189 248 233 200 257 314 337 300 278 277 354 292 289 269 266 253 263 273 288 272 350 294 286 280 248 226
336 330 325 326 316 315 321 318 312 307 297 285 264 265 256 61 152 152 199 249 156 299 242 209 305 251 343 248 246 277 271 262 192 211 260 279 243 234 10 303 308 297 252 261 284
336 326 329 324 314 320 322 315 306 295 282 264 239 259 355 124 233 223 213 218 209 234 280 296 267 278 266 317 257 248 245 240 124 273 119 266 326 57 359 320 311 334 313 270 220
335 329 330 320 323 321 318 309 289 268 256 224 236 236 130 134 217 110 239 234 170 217 216 284 260 266 249 242 236 208 249 342 136 117 297 250 317 45 339 322 319 300 323 4 241
329 331 326 324 325 319 310 285 302 270 226 226 261 252 183 146 60 302 215 263 225 216 226 225 234 244 215 250 356 33 325 160 284 67 333 290 351 32 4 314 350 339 338 336 332
335 330 325 326 322 314 316 211 211 189 220 332 349 287 98 59 219 218 172 209 227 226 261 205 249 348 25 350 346 339 296 270 310 47 307 286 284 52 18 31 37 26 21 359 344
333 322 329 324 319 311 278 29 36 337 288 165 261 251 203 256 211 178 208 238 228 265 210 216 130 59 334 319 290 259 266 33 268 133 276 306 155 94 84 52 47 41 36 20 32
327 325 325 323 318 293 28 25 316 309 259 127 142 192 170 222 316 153 240 246 263 231 234 324 76 126 270 247 250 141 356 357 324 301 238 256 144 130 76 72 52 48 38 52 37
319 322 330 323 297 342 97 342 331 305 253 138 184 131 182 231 190 341 295 307 213 299 216 329 113 284 282 238 306 93 31 308 303 286 228 178 222 74 73 61 48 46 36 38 44
319 327 324 328 311 309 356 321 330 238 220 124 130 75 165 244 119 145 174 232 304 138 248 93 223 305 278 23 326 14 334 314 298 279 267 202 127 134 73 46 40 43 37 27 40
317 320 329 234 256 290 311 307 252 230 147 137 149 182 186 192 163 129 202 228 304 256 230 300 110 264 0 296 279 302 268 236 221 232 222 61 299 67 55 40 40 34 35 25 28
310 307 306 308 312 333 309 254 229 265 137 160 176 189 148 149 149 179 191 190 286 235 184 185 188 152 272 289 178 228 264 275 224 216 88 96 266 66 65 50 44 37 36 27 23
305 302 250 257 300 298 269 234 261 73 152 96 206 150 161 161 122 161 189 142 72 322 286 222 166 172 360 347 339 354 329 350 328 343 359 148 189 101 93 64 44 43 37 27 29
303 257 247 202 310 266 257 231 42 156 101 174 198 176 148 160 243 165 46 43 41 10 330 311 142 150 34 324 316 6 346 6 296 254 257 156 106 134 92 52 42 44 30 25 24
311 283 239 100 268 258 250 289 93 31 257 261 198 276 168 150 204 239 150 35 5 11 351 20 295 148 68 268 196 327 353 295 233 309 320 327 332 83 73 36 20 25 21 20 21
267 247 91 224 244 233 243 114 149 137 268 280 263 197 67 168 287 135 73 77 4 353 320 2 283 191 227 283 2 327 325 358 307 283 316 297 7 65 55 43 12 17 18 22 18
279 229 112 222 225 226 250 158 349 148 197 182 302 43 167 197 184 119 95 37 353 331 351 56 310 298 303 37 306 275 332 353 332 323 323 311 286 76 64 46 24 8 12 31 18
248 322 147 250 241 203 130 178 258 188 189 191 156 190 242 104 160 69 106 59 17 35 21 0 352 293 267 162 180 290 13 303 276 292 272 291 309 119 102 56 52 11 9 10 358
280 206 151 215 284 298 170 191 174 277 147 208 121 151 163 164 27 156 132 101 59 75 334 307 295 285 294 318 326 304 302 306 299 276 295 296 310 317 1 49 35 20 356 355 359
231 246 5 187 213 226 211 192 191 172 207 197 177 236 222 210 191 158 277 157 162 142 223 358 281 295 297 297 293 288 292 301 299 304 300 318 312 338 29 20 6 271 346 331 354
265 269 182 313 216 207 180 209 213 163 181 185 234 162 169 210 341 124 135 311 24 141 355 19 296 295 290 268 291 298 291 288 338 328 312 325 46 3 4 311 306 333 347 334 349
137 269 281 123 202 210 187 210 215 156 236 269 179 189 140 71 49 45 40 57 12 323 333 297 328 305 293 339 310 279 40 358 327 308 354 318 355 345 5 5 330 325 310 355 350